| time (UTC) | temp C | wind direction | speed KPH | gust KPH | rain 1hr cm | rain 24hr cm | rain mn cm | humidity % | barometer mb |
| 20260504050511 | 13 | 277 | 0.0 | 0.0 | 0.00 | 0.00 | 0.00 | 62 | 1006.8 |
| 20260504050016 | 13 | 277 | 0.0 | 0.0 | 0.00 | 0.00 | 0.00 | 61 | 1006.7 |
| 20260504045505 | 13 | 277 | 0.0 | 0.0 | 0.00 | 0.00 | 0.00 | 63 | 1006.8 |
| 20260504045007 | 13 | 277 | 0.0 | 0.0 | 0.00 | 0.00 | 0.00 | 63 | 1006.8 |
| 20260504044522 | 13 | 277 | 0.0 | 0.0 | 0.00 | 0.00 | 0.00 | 62 | 1006.9 |
| 20260504044007 | 13 | 277 | 0.0 | 0.0 | 0.00 | 0.00 | 0.00 | 63 | 1006.9 |
| 20260504043507 | 13 | 277 | 0.0 | 0.0 | 0.00 | 0.00 | 0.00 | 61 | 1007.0 |
| 20260504043025 | 13 | 277 | 0.0 | 0.0 | 0.00 | 0.00 | 0.00 | 60 | 1007.0 |
| 20260504042504 | 14 | 277 | 0.0 | 0.0 | 0.00 | 0.00 | 0.00 | 59 | 1007.0 |
| 20260504042007 | 14 | 277 | 0.0 | 0.0 | 0.00 | 0.00 | 0.00 | 57 | 1007.0 |
| 20260504041519 | 14 | 277 | 0.0 | 0.0 | 0.00 | 0.00 | 0.00 | 58 | 1007.1 |
| 20260504041007 | 15 | 277 | 0.0 | 0.0 | 0.00 | 0.00 | 0.00 | 57 | 1007.1 |
| 20260504040505 | 15 | 277 | 0.0 | 0.0 | 0.00 | 0.00 | 0.00 | 55 | 1007.2 |
| 20260504040015 | 15 | 277 | 0.0 | 0.0 | 0.00 | 0.00 | 0.00 | 56 | 1007.3 |
| 20260504035511 | 15 | 277 | 0.0 | 0.0 | 0.00 | 0.00 | 0.00 | 56 | 1007.4 |
| 20260504035010 | 14 | 277 | 0.0 | 0.0 | 0.00 | 0.00 | 0.00 | 58 | 1007.4 |
| 20260504034516 | 14 | 277 | 0.0 | 0.0 | 0.00 | 0.00 | 0.00 | 58 | 1007.4 |
| 20260504034010 | 14 | 277 | 0.0 | 0.0 | 0.00 | 0.00 | 0.00 | 59 | 1007.5 |
| 20260504033506 | 15 | 277 | 0.0 | 0.0 | 0.00 | 0.00 | 0.00 | 58 | 1007.6 |
| 20260504033022 | 15 | 277 | 0.0 | 0.0 | 0.00 | 0.00 | 0.00 | 58 | 1007.6 |
| 20260504032506 | 15 | 277 | 0.0 | 0.0 | 0.00 | 0.00 | 0.00 | 58 | 1007.5 |
| 20260504032008 | 15 | 277 | 0.0 | 0.0 | 0.00 | 0.00 | 0.00 | 56 | 1007.5 |
| 20260504031506 | 15 | 277 | 0.0 | 0.0 | 0.00 | 0.00 | 0.00 | 54 | 1007.6 |
| 20260504031002 | 16 | 277 | 0.0 | 0.0 | 0.00 | 0.00 | 0.00 | 53 | 1007.6 |
| 20260504030506 | 15 | 277 | 0.0 | 0.0 | 0.00 | 0.00 | 0.00 | 53 | 1007.6 |
| 20260504030007 | 16 | 277 | 0.0 | 0.0 | 0.00 | 0.00 | 0.00 | 54 | 1007.6 |
| 20260504025504 | 16 | 277 | 0.0 | 0.0 | 0.00 | 0.00 | 0.00 | 51 | 1007.7 |
| 20260504025005 | 16 | 277 | 0.0 | 0.0 | 0.00 | 0.00 | 0.00 | 52 | 1007.7 |
| 20260504024507 | 17 | 277 | 0.0 | 0.0 | 0.00 | 0.00 | 0.00 | 46 | 1007.7 |
| 20260504024006 | 17 | 277 | 0.0 | 0.0 | 0.00 | 0.00 | 0.00 | 45 | 1007.7 |
| 20260504023503 | 17 | 277 | 0.0 | 0.0 | 0.00 | 0.00 | 0.00 | 44 | 1007.8 |
| 20260504023003 | 17 | 277 | 0.0 | 0.0 | 0.00 | 0.00 | 0.00 | 44 | 1007.8 |
| 20260504022503 | 17 | 277 | 0.0 | 0.0 | 0.00 | 0.00 | 0.00 | 45 | 1007.8 |
| 20260504022004 | 17 | 277 | 0.0 | 0.0 | 0.00 | 0.00 | 0.00 | 44 | 1007.8 |
| 20260504021504 | 17 | 277 | 0.0 | 0.0 | 0.00 | 0.00 | 0.00 | 43 | 1007.9 |
| 20260504021009 | 18 | 277 | 0.0 | 0.0 | 0.00 | 0.00 | 0.00 | 42 | 1007.8 |
| 20260504020503 | 18 | 277 | 0.0 | 0.0 | 0.00 | 0.00 | 0.00 | 41 | 1007.9 |
| 20260504020007 | 18 | 277 | 0.0 | 0.0 | 0.00 | 0.00 | 0.00 | 41 | 1008.0 |
| 20260504015503 | 18 | 277 | 0.0 | 0.0 | 0.00 | 0.00 | 0.00 | 40 | 1008.0 |
| 20260504015003 | 18 | 277 | 0.0 | 0.0 | 0.00 | 0.00 | 0.00 | 40 | 1008.0 |
| 20260504014519 | 19 | 277 | 0.0 | 0.0 | 0.00 | 0.00 | 0.00 | 40 | 1008.1 |
| 20260504014003 | 19 | 277 | 0.0 | 0.0 | 0.00 | 0.00 | 0.00 | 40 | 1008.0 |
| 20260504013504 | 19 | 277 | 0.0 | 0.0 | 0.00 | 0.00 | 0.00 | 40 | 1008.0 |
| 20260504013015 | 19 | 277 | 0.0 | 0.0 | 0.00 | 0.00 | 0.00 | 39 | 1008.0 |
| 20260504012505 | 20 | 277 | 0.0 | 1.6 | 0.00 | 0.00 | 0.00 | 38 | 1008.0 |
| 20260504012003 | 20 | 277 | 0.0 | 1.6 | 0.00 | 0.00 | 0.00 | 38 | 1008.0 |
| 20260504011510 | 20 | 277 | 0.0 | 1.6 | 0.00 | 0.00 | 0.00 | 38 | 1008.0 |
| 20260504011004 | 20 | 268 | 0.0 | 3.2 | 0.00 | 0.00 | 0.00 | 38 | 1008.0 |
| 20260504010505 | 20 | 269 | 0.0 | 6.4 | 0.00 | 0.00 | 0.00 | 37 | 1008.1 |
| 20260504010006 | 21 | 271 | 0.0 | 6.4 | 0.00 | 0.00 | 0.00 | 37 | 1008.2 |
| 20260504005503 | 21 | 278 | 0.0 | 4.8 | 0.00 | 0.00 | 0.00 | 37 | 1008.2 |
| 20260504005003 | 21 | 281 | 0.0 | 4.8 | 0.00 | 0.00 | 0.00 | 36 | 1008.3 |
| 20260504004507 | 21 | 294 | 0.0 | 4.8 | 0.00 | 0.00 | 0.00 | 35 | 1008.3 |
| 20260504004005 | 21 | 303 | 0.0 | 4.8 | 0.00 | 0.00 | 0.00 | 36 | 1008.3 |
| 20260504003507 | 21 | 303 | 1.6 | 4.8 | 0.00 | 0.00 | 0.00 | 36 | 1008.3 |
| 20260504003004 | 21 | 274 | 0.0 | 4.8 | 0.00 | 0.00 | 0.00 | 34 | 1008.3 |
| 20260504002504 | 21 | 274 | 0.0 | 4.8 | 0.00 | 0.00 | 0.00 | 36 | 1008.3 |
| 20260504002006 | 21 | 327 | 0.0 | 6.4 | 0.00 | 0.00 | 0.00 | 36 | 1008.4 |
| 20260504001521 | 21 | 327 | 0.0 | 6.4 | 0.00 | 0.00 | 0.00 | 37 | 1008.5 |
| 20260504001003 | 22 | 310 | 0.0 | 6.4 | 0.00 | 0.00 | 0.00 | 36 | 1008.5 |
| 20260504000504 | 22 | 58 | 0.0 | 4.8 | 0.00 | 0.00 | 0.00 | 35 | 1008.5 |
| 20260504000037 | 22 | 265 | 0.0 | 4.8 | 0.00 | 0.00 | 0.00 | 33 | 1008.6 |
| 20260503235505 | 22 | 263 | 0.0 | 6.4 | 0.00 | 0.00 | 0.00 | 36 | 1008.6 |
| 20260503235003 | 22 | 263 | 0.0 | 11.3 | 0.00 | 0.00 | 0.00 | 34 | 1008.6 |
| 20260503234510 | 22 | 284 | 1.6 | 11.3 | 0.00 | 0.00 | 0.00 | 33 | 1008.6 |
| 20260503234004 | 22 | 265 | 1.6 | 9.7 | 0.00 | 0.00 | 0.00 | 33 | 1008.7 |
| 20260503233502 | 22 | 311 | 0.0 | 9.7 | 0.00 | 0.00 | 0.00 | 35 | 1008.7 |
| 20260503233019 | 23 | 335 | 3.2 | 6.4 | 0.00 | 0.00 | 0.00 | 35 | 1008.7 |
| 20260503232503 | 23 | 307 | 0.0 | 6.4 | 0.00 | 0.00 | 0.00 | 33 | 1008.7 |
| 20260503232007 | 23 | 249 | 0.0 | 6.4 | 0.00 | 0.00 | 0.00 | 32 | 1008.8 |
| 20260503231512 | 23 | 259 | 0.0 | 6.4 | 0.00 | 0.00 | 0.00 | 31 | 1008.8 |
| 20260503231006 | 23 | 260 | 1.6 | 6.4 | 0.00 | 0.00 | 0.00 | 34 | 1008.8 |
| 20260503230506 | 23 | 259 | 0.0 | 8.0 | 0.00 | 0.00 | 0.00 | 31 | 1008.8 |
| 20260503230008 | 23 | 273 | 1.6 | 11.3 | 0.00 | 0.00 | 0.00 | 32 | 1008.9 |
| 20260503225506 | 23 | 298 | 1.6 | 11.3 | 0.00 | 0.00 | 0.00 | 32 | 1008.9 |
| 20260503225007 | 23 | 325 | 3.2 | 11.3 | 0.00 | 0.00 | 0.00 | 33 | 1008.8 |
| 20260503224507 | 24 | 344 | 4.8 | 11.3 | 0.00 | 0.00 | 0.00 | 33 | 1008.8 |
| 20260503224007 | 24 | 333 | 1.6 | 8.0 | 0.00 | 0.00 | 0.00 | 35 | 1008.8 |
| 20260503223504 | 23 | 355 | 1.6 | 4.8 | 0.00 | 0.00 | 0.00 | 31 | 1008.8 |
| 20260503223010 | 24 | 351 | 0.0 | 3.2 | 0.00 | 0.00 | 0.00 | 32 | 1008.9 |
| 20260503222502 | 24 | 348 | 1.6 | 6.4 | 0.00 | 0.00 | 0.00 | 32 | 1008.9 |
| 20260503222006 | 24 | 348 | 0.0 | 8.0 | 0.00 | 0.00 | 0.00 | 31 | 1009.0 |
| 20260503221514 | 24 | 328 | 3.2 | 8.0 | 0.00 | 0.00 | 0.00 | 33 | 1009.0 |
| 20260503221006 | 24 | 347 | 0.0 | 6.4 | 0.00 | 0.00 | 0.00 | 32 | 1009.0 |
| 20260503220504 | 23 | 343 | 3.2 | 6.4 | 0.00 | 0.00 | 0.00 | 33 | 1008.9 |
| 20260503220021 | 23 | 320 | 3.2 | 4.8 | 0.00 | 0.00 | 0.00 | 33 | 1009.0 |
| 20260503215506 | 23 | 23 | 0.0 | 8.0 | 0.00 | 0.00 | 0.00 | 34 | 1009.0 |
| 20260503215007 | 23 | 345 | 0.0 | 8.0 | 0.00 | 0.00 | 0.00 | 33 | 1009.1 |
| 20260503214523 | 23 | 239 | 1.6 | 6.4 | 0.00 | 0.00 | 0.00 | 32 | 1009.3 |
| 20260503214003 | 25 | 322 | 1.6 | 9.7 | 0.00 | 0.00 | 0.00 | 31 | 1009.3 |
| 20260503213512 | 23 | 360 | 1.6 | 9.7 | 0.00 | 0.00 | 0.00 | 33 | 1009.4 |
| 20260503213010 | 23 | 246 | 3.2 | 14.5 | 0.00 | 0.00 | 0.00 | 34 | 1009.5 |
| 20260503212508 | 24 | 309 | 3.2 | 14.5 | 0.00 | 0.00 | 0.00 | 31 | 1009.6 |
| 20260503212005 | 24 | 309 | 4.8 | 14.5 | 0.00 | 0.00 | 0.00 | 33 | 1009.7 |
| 20260503211513 | 24 | 289 | 1.6 | 9.7 | 0.00 | 0.00 | 0.00 | 36 | 1009.7 |
| 20260503211007 | 24 | 227 | 3.2 | 12.9 | 0.00 | 0.00 | 0.00 | 30 | 1009.8 |
| 20260503210510 | 23 | 319 | 1.6 | 16.1 | 0.00 | 0.00 | 0.00 | 34 | 1009.9 |
| 20260503210035 | 23 | 300 | 8.0 | 17.7 | 0.00 | 0.00 | 0.00 | 33 | 1010.1 |
| 20260503205506 | 23 | 258 | 4.8 | 17.7 | 0.00 | 0.00 | 0.00 | 34 | 1010.1 |
| 20260503205007 | 23 | 252 | 1.6 | 12.9 | 0.00 | 0.00 | 0.00 | 36 | 1010.1 |
| 20260503204512 | 23 | 252 | 4.8 | 12.9 | 0.00 | 0.00 | 0.00 | 33 | 1010.2 |
| 20260503204008 | 23 | 305 | 1.6 | 11.3 | 0.00 | 0.00 | 0.00 | 30 | 1010.3 |
| 20260503203503 | 23 | 21 | 1.6 | 8.0 | 0.00 | 0.00 | 0.00 | 35 | 1010.4 |
| 20260503203020 | 23 | 107 | 0.0 | 8.0 | 0.00 | 0.00 | 0.00 | 34 | 1010.4 |
| 20260503202508 | 23 | 355 | 3.2 | 6.4 | 0.00 | 0.00 | 0.00 | 35 | 1010.5 |
| 20260503202004 | 23 | 232 | 1.6 | 6.4 | 0.00 | 0.00 | 0.00 | 37 | 1010.7 |
| 20260503201522 | 24 | 297 | 1.6 | 6.4 | 0.00 | 0.00 | 0.00 | 33 | 1010.7 |
| 20260503201005 | 23 | 350 | 1.6 | 12.9 | 0.00 | 0.00 | 0.00 | 37 | 1010.7 |
| 20260503200507 | 23 | 315 | 3.2 | 12.9 | 0.00 | 0.00 | 0.00 | 38 | 1010.8 |
| 20260503200018 | 24 | 5 | 6.4 | 12.9 | 0.00 | 0.00 | 0.00 | 35 | 1010.8 |
| 20260503195508 | 23 | 274 | 0.0 | 12.9 | 0.00 | 0.00 | 0.00 | 34 | 1010.7 |
| 20260503195006 | 23 | 88 | 3.2 | 12.9 | 0.00 | 0.00 | 0.00 | 34 | 1010.8 |
| 20260503194522 | 23 | 309 | 3.2 | 9.7 | 0.00 | 0.00 | 0.00 | 37 | 1010.8 |
| 20260503194004 | 22 | 332 | 1.6 | 12.9 | 0.00 | 0.00 | 0.00 | 39 | 1010.8 |
| 20260503193509 | 22 | 314 | 4.8 | 14.5 | 0.00 | 0.00 | 0.00 | 36 | 1010.8 |
| 20260503193022 | 22 | 311 | 1.6 | 14.5 | 0.00 | 0.00 | 0.00 | 34 | 1010.8 |
| 20260503192506 | 22 | 330 | 4.8 | 12.9 | 0.00 | 0.00 | 0.00 | 37 | 1010.9 |
| 20260503192008 | 22 | 350 | 3.2 | 14.5 | 0.00 | 0.00 | 0.00 | 35 | 1011.0 |
| 20260503191519 | 22 | 285 | 3.2 | 17.7 | 0.00 | 0.00 | 0.00 | 33 | 1011.0 |
| 20260503191009 | 22 | 323 | 11.3 | 17.7 | 0.00 | 0.00 | 0.00 | 34 | 1011.1 |
| 20260503190507 | 22 | 355 | 3.2 | 19.3 | 0.00 | 0.00 | 0.00 | 36 | 1011.1 |
| 20260503190017 | 22 | 331 | 9.7 | 19.3 | 0.00 | 0.00 | 0.00 | 36 | 1011.2 |
| 20260503185507 | 23 | 360 | 4.8 | 14.5 | 0.00 | 0.00 | 0.00 | 36 | 1011.1 |
| 20260503185009 | 23 | 346 | 4.8 | 14.5 | 0.00 | 0.00 | 0.00 | 37 | 1011.1 |
| 20260503184524 | 23 | 320 | 3.2 | 9.7 | 0.00 | 0.00 | 0.00 | 37 | 1011.1 |
| 20260503184011 | 22 | 344 | 3.2 | 14.5 | 0.00 | 0.00 | 0.00 | 34 | 1011.2 |
| 20260503183508 | 22 | 337 | 1.6 | 16.1 | 0.00 | 0.00 | 0.00 | 38 | 1011.3 |
| 20260503183023 | 22 | 314 | 6.4 | 16.1 | 0.00 | 0.00 | 0.00 | 38 | 1011.4 |
| 20260503182507 | 22 | 346 | 0.0 | 14.5 | 0.00 | 0.00 | 0.00 | 36 | 1011.4 |
| 20260503182007 | 22 | 294 | 4.8 | 12.9 | 0.00 | 0.00 | 0.00 | 38 | 1011.5 |
| 20260503181515 | 22 | 304 | 1.6 | 14.5 | 0.00 | 0.00 | 0.00 | 41 | 1011.4 |
| 20260503181008 | 22 | 30 | 3.2 | 14.5 | 0.00 | 0.00 | 0.00 | 34 | 1011.6 |
| 20260503180510 | 22 | 350 | 3.2 | 17.7 | 0.00 | 0.00 | 0.00 | 37 | 1011.7 |
| 20260503180026 | 22 | 336 | 4.8 | 19.3 | 0.00 | 0.00 | 0.00 | 38 | 1011.6 |
| 20260503175506 | 22 | 336 | 6.4 | 19.3 | 0.00 | 0.00 | 0.00 | 40 | 1011.8 |
| 20260503175008 | 22 | 306 | 4.8 | 17.7 | 0.00 | 0.00 | 0.00 | 38 | 1011.7 |
| 20260503174525 | 21 | 334 | 6.4 | 16.1 | 0.00 | 0.00 | 0.00 | 39 | 1011.7 |
| 20260503174010 | 21 | 315 | 6.4 | 16.1 | 0.00 | 0.00 | 0.00 | 39 | 1011.8 |
| 20260503173508 | 21 | 28 | 4.8 | 16.1 | 0.00 | 0.00 | 0.00 | 36 | 1011.8 |
| 20260503173020 | 21 | 320 | 6.4 | 16.1 | 0.00 | 0.00 | 0.00 | 36 | 1011.8 |
| 20260503172507 | 21 | 80 | 3.2 | 14.5 | 0.00 | 0.00 | 0.00 | 38 | 1011.8 |
| 20260503172010 | 22 | 342 | 4.8 | 14.5 | 0.00 | 0.00 | 0.00 | 36 | 1011.9 |
| 20260503171521 | 21 | 5 | 4.8 | 19.3 | 0.00 | 0.00 | 0.00 | 40 | 1011.9 |
| 20260503171008 | 21 | 329 | 8.0 | 19.3 | 0.00 | 0.00 | 0.00 | 39 | 1011.9 |
| 20260503170511 | 21 | 327 | 4.8 | 11.3 | 0.00 | 0.00 | 0.00 | 38 | 1011.9 |
| 20260503151010 | 16 | 329 | 4.8 | 14.5 | 0.00 | 0.00 | 0.00 | 51 | 1011.8 |
| 20260503150510 | 16 | 347 | 3.2 | 14.5 | 0.00 | 0.00 | 0.00 | 51 | 1011.8 |
| 20260503131006 | 12 | 250 | 4.8 | 16.1 | 0.00 | 0.00 | 0.00 | 56 | 1010.9 |
| 20260503130506 | 12 | 296 | 3.2 | 16.1 | 0.00 | 0.00 | 0.00 | 59 | 1010.8 |
| 20260503110506 | 11 | 331 | 0.0 | 6.4 | 0.00 | 0.00 | 0.00 | 54 | 1010.8 |
| 20260503090504 | 13 | 223 | 1.6 | 14.5 | 0.00 | 0.00 | 0.00 | 46 | 1010.4 |
| 20260503081523 | 12 | 147 | 0.0 | 6.4 | 0.00 | 0.00 | 0.00 | 47 | 1010.9 |
| 20260503081003 | 11 | 71 | 0.0 | 6.4 | 0.00 | 0.00 | 0.00 | 49 | 1010.9 |
| 20260503080507 | 11 | 333 | 0.0 | 6.4 | 0.00 | 0.00 | 0.00 | 49 | 1010.9 |
| 20260503072507 | 12 | 144 | 1.6 | 6.4 | 0.00 | 0.00 | 0.00 | 47 | 1011.2 |
| 20260503072006 | 12 | 163 | 1.6 | 9.7 | 0.00 | 0.00 | 0.00 | 45 | 1011.2 |
| 20260503071528 | 12 | 142 | 1.6 | 9.7 | 0.00 | 0.00 | 0.00 | 45 | 1011.2 |
| 20260503071009 | 12 | 152 | 3.2 | 9.7 | 0.00 | 0.00 | 0.00 | 45 | 1011.2 |
| 20260503070505 | 12 | 234 | 1.6 | 8.0 | 0.00 | 0.00 | 0.00 | 45 | 1011.3 |